Home > Weather > Stellenbosch > Past weeks

Flag for South Africa Weather for the Past 2 Weeks in Stellenbosch, South Africa

Now
77 °F

Passing clouds.


Feels Like: 79 °F
Forecast: 61 / 97 °F
Wind: 6 mph from Southwest

Location: Cape Town International Airport

Current Time: Feb 9, 2016 at 10:07:07 AM

Latest Report: Feb 9, 2016 at 9:00 AM


Visibility: N/A

Pressure: 29.89 "Hg

Humidity: 54%

Dew point: 59 °F

Location of StellenboschLocation

Historic Weather in Stellenbosch — Graph

°F

Stellenbosch Temperature Yesterday

Maximum temperature yesterday: 86 °F (at 3:00 PM)
Minimum temperature yesterday: 64 °F (at 6:00 AM)
Average temperature yesterday: 76 °F

High & Low Weather Summary for the Past Weeks

 TemperatureHumidityPressure
High91 °F (Jan 31, 2:00 PM)94% (Jan 25, 9:00 AM)30.09 "Hg (Jan 25, 9:00 AM)
Low61 °F (Jan 26, 1:00 AM)23% (Feb 9, 12:00 AM)29.74 "Hg (Feb 1, 3:00 AM)
Average73 °F67%29.94 "Hg
* Reported Jan 25 9:00 AM — Feb 9 9:00 AM, Stellenbosch, Weather by CustomWeather, © 2016

Note: Actual official high and low records may vary slightly from our data, if they occured in-between our weather recording intervals... More about our weather records

Advertising

Stellenbosch Weather History for the Previous 24 Hours

 ConditionsComfort  
Time TempWeatherWind HumidityBarometerVisibility
9:00 AM
Tue, Feb 9
77 °FPassing clouds.6 mph54%29.89 "HgN/A
8:00 AM73 °FPassing clouds.12 mph57%29.89 "HgN/A
7:00 AM68 °FPassing clouds.5 mph73%29.89 "HgN/A
6:00 AM66 °FSunny.7 mph73%29.86 "Hg10 mi
5:00 AM70 °FClear.13 mph69%29.86 "Hg10 mi
4:00 AM64 °FPassing clouds.3 mph78%29.89 "HgN/A
3:00 AM68 °FClear.6 mph69%29.89 "Hg10 mi
2:00 AM68 °FClear.7 mph69%29.92 "Hg10 mi
1:00 AM72 °FPassing clouds.6 mph65%29.95 "HgN/A
12:00 AM73 °FPassing clouds.3 mph23%29.95 "HgN/A
11:00 PM
Mon, Feb 8
70 °FClear.6 mph69%29.95 "Hg10 mi
10:00 PM73 °FClear.7 mph69%29.98 "Hg10 mi
9:00 PM75 °FClear.16 mph61%29.98 "Hg10 mi
8:00 PM79 °FClear.17 mph54%29.95 "Hg10 mi
7:00 PM82 °FClear.18 mph48%29.95 "Hg10 mi
6:00 PM86 °FSunny.18 mph46%29.95 "Hg10 mi
5:00 PM84 °FSunny.23 mph48%29.95 "Hg10 mi
4:00 PM84 °FSunny.20 mph48%29.98 "Hg10 mi
3:00 PM86 °FSunny.17 mph46%30.01 "Hg10 mi
2:00 PM84 °FSunny.16 mph45%30.01 "Hg10 mi
1:00 PM84 °FSunny.17 mph45%30.01 "Hg10 mi
12:00 PM84 °FSunny.15 mph45%30.04 "Hg10 mi
11:00 AM82 °FPassing clouds.15 mph48%30.04 "HgN/A
10:00 AM81 °FPassing clouds.6 mph51%30.04 "HgN/A
Weather by CustomWeather, © 2016

See weather overviewHow to use our weather pages